Location: Caltech
(34.1382°N, 118.1253°W)
Time: 11:55:58
(UTC-07:00)

ITAMSAT 1 - Visible Passes

Search period start: 29 August 2015 00:00
Search period end: 08 September 2015 00:00
Orbit: 784 x 798 km, 98.7° (Epoch: 28 August)

Date Brightness Start Highest point End Pass type
(mag) Time Alt. Az. Time Alt. Az. Time Alt. Az.
29 Aug 10.5 02:13:21 10° ENE 02:13:39 11° ENE 02:13:39 11° ENE visible
29 Aug 8.5 03:50:51 10° N 03:54:23 40° NNW 03:54:23 40° NNW visible
30 Aug 8.9 03:21:30 10° NNE 03:24:41 38° NNE 03:24:41 38° NNE visible
30 Aug 9.7 05:04:00 10° NW 05:05:25 11° WNW 05:05:25 11° WNW visible
31 Aug 9.7 02:52:35 10° NNE 02:54:58 24° NE 02:54:58 24° NE visible
31 Aug 9.2 04:32:42 10° NNW 04:35:43 21° NW 04:35:43 21° NW visible
01 Sep 10.4 02:24:19 10° NE 02:25:16 13° ENE 02:25:16 13° ENE visible
01 Sep 8.7 04:02:42 10° N 04:06:00 33° NNW 04:06:00 33° NNW visible
02 Sep 8.8 03:33:12 10° N 03:36:18 37° N 03:36:18 37° N visible
03 Sep 9.5 03:04:07 10° NNE 03:06:35 27° NE 03:06:35 27° NE visible
03 Sep 9.4 04:44:56 10° NNW 04:47:20 16° NW 04:47:20 16° NW visible
04 Sep 10.2 02:35:32 10° NE 02:36:53 16° NE 02:36:53 16° NE visible
04 Sep 9.0 04:14:39 10° N 04:17:37 27° NW 04:17:37 27° NW visible
05 Sep 8.9 03:44:58 10° N 03:47:55 34° N 03:47:55 34° N visible
06 Sep 9.4 03:15:43 10° NNE 03:18:12 28° NNE 03:18:12 28° NNE visible
06 Sep 9.6 04:57:26 10° NW 04:58:56 13° NW 04:58:56 13° NW visible
07 Sep 10.1 02:46:54 10° NE 02:48:29 18° NE 02:48:29 18° NE visible
07 Sep 9.2 04:26:40 10° NNW 04:29:14 21° NW 04:29:14 21° NW visible
